Location: Sternwarte ZA, Rosenfeld-Brittheim
(48.2889°N, 8.6789°E)
Time: 20:30:23
(UTC+02:00)

ISS - Pass Details

Date: 19 July 2019
Orbit: 409 x 418 km, 51.6° (Epoch: 20 July)

Event Time Altitude Azimuth Distance (km) Brightness Sun altitude
Rises 22:12:29 0° 230° (SW) 2,346 0.1 -7.9°
Reaches altitude 10° 22:14:37 10° 224° (SW) 1,485 -1.0 -8.1°
Maximum altitude 22:17:50 48° 149° (SSE) 550 -3.6 -8.5°
Drops below altitude 10° 22:21:04 10° 74° (ENE) 1,487 -1.2 -8.9°
Sets 22:23:12 0° 69° (ENE) 2,350 -0.2 -9.1°
